Cheraw, SC

9:44 AM EST on January 22, 2018 (GMT -0500)
Cheraw

Weather History for KCQW - March, 2014

Change the Weather History Date:

Saturday, March 8, 2014

  Actual Average (KFLO) Record (KFLO)
Temperature  
Mean Temperature 49 °F -  
Max Temperature 68 °F 62 °F 90 °F (1974)
Min Temperature 30 °F 39 °F 26 °F (1960)
Degree Days  
Heating Degree Days 16    
Moisture  
Dew Point 38 °F    
Average Humidity 71    
Maximum Humidity 100    
Minimum Humidity 32    
Precipitation  
Precipitation 0.00 in - - ()
Sea Level Pressure  
Sea Level Pressure 30.04 in    
Wind  
Wind Speed - (North)    
Max Wind Speed -    
Max Gust Speed -    
Visibility 10 miles    
Events      
Averages and records for this station are not official NWS values.
T = Trace of Precipitation, MM = Missing Value Source: NWS Daily Summary

Daily Weather History Graph

Daily Weather History Graph

Search for Another Location

Airport or City:

Trip Planner

Search our weather history database for the weather conditions in past years. The results will help you decide how hot, cold, wet, or windy it might be!

Date:

Astronomy

Mar. 08, 2014 Rise Set
Actual Time 6:39 AM EST 6:21 PM EST
Civil Twilight 6:14 AM EST 6:46 PM EST
Nautical Twilight 5:45 AM EST 7:16 PM EST
Astronomical Twilight 5:16 AM EST 7:45 PM EST
Moon 11:34 AM EST (3/8) 1:03 AM EST (3/8)
Length of Visible Light 12h 32m
Length of Day
11h 41m
First Quarter, 51% of the Moon is Illuminated
Mar 8
First Quarter
Mar 16
Full
Mar 23
Last Quarter
Mar 30
New
Apr 7
First Quarter

Hourly Weather History & Observations

Time (EST) Temp. Dew Point Humidity Pressure Visibility Wind Dir Wind Speed Gust Speed Precip Events Conditions
12:15 AM 32.0 °F 32.0 °F 100% 29.99 in 5.0 mi North - - N/A   Clear
12:35 AM 32.0 °F 32.0 °F 100% 30.00 in 10.0 mi North - - N/A   Clear
12:55 AM 33.8 °F 33.8 °F 100% 30.01 in 10.0 mi North - - N/A   Clear
1:35 AM 32.0 °F 32.0 °F 100% 30.02 in 10.0 mi North - - N/A   Clear
1:55 AM 33.8 °F 33.8 °F 100% 30.03 in 10.0 mi North - - N/A   Clear
2:15 AM 32.0 °F 32.0 °F 100% 30.03 in 10.0 mi North - - N/A   Clear
2:35 AM 32.0 °F 32.0 °F 100% 30.02 in 9.0 mi North - - N/A   Clear
2:55 AM 32.0 °F 32.0 °F 100% 30.01 in 10.0 mi North - - N/A   Clear
3:15 AM 32.0 °F 32.0 °F 100% 30.02 in 5.0 mi North - - N/A   Clear
3:35 AM 32.0 °F 32.0 °F 100% 30.02 in 10.0 mi North - - N/A   Clear
3:55 AM 32.0 °F 32.0 °F 100% 30.03 in 10.0 mi North - - N/A   Clear
4:15 AM 32.0 °F 32.0 °F 100% 30.02 in 10.0 mi North - - N/A   Clear
4:35 AM 32.0 °F 32.0 °F 100% 30.03 in 10.0 mi North - - N/A   Clear
4:55 AM 32.0 °F 32.0 °F 100% 30.03 in 10.0 mi North - - N/A   Clear
5:15 AM 30.2 °F 30.2 °F 100% 30.04 in 9.0 mi North - - N/A   Clear
5:35 AM 30.2 °F 30.2 °F 100% 30.04 in 9.0 mi North - - N/A   Clear
5:55 AM 30.2 °F 30.2 °F 100% 30.05 in 7.0 mi North - - N/A   Clear
6:15 AM 30.2 °F 30.2 °F 100% 30.06 in 8.0 mi North - - N/A   Clear
6:35 AM 30.2 °F 30.2 °F 100% 30.06 in 7.0 mi North - - N/A   Clear
6:55 AM 32.0 °F 32.0 °F 100% 30.07 in 10.0 mi North - - N/A   Clear
7:15 AM 32.0 °F 32.0 °F 100% 30.07 in 9.0 mi North - - N/A   Clear
7:35 AM 32.0 °F 32.0 °F 100% 30.08 in 5.0 mi North - - N/A   Clear
7:55 AM 35.6 °F 35.6 °F 100% 30.10 in 8.0 mi North - - N/A   Clear
8:15 AM 37.4 °F 37.4 °F 100% 30.11 in 10.0 mi North - - N/A   Clear
8:35 AM 39.2 °F 39.2 °F 100% 30.11 in 10.0 mi North - - N/A   Clear
8:55 AM 41.0 °F 41.0 °F 100% 30.11 in 10.0 mi North - - N/A   Clear
9:15 AM 44.6 °F 41.0 °F 87% 30.11 in 10.0 mi North - - N/A   Clear
9:35 AM 46.4 °F 44.6 °F 93% 30.11 in 10.0 mi North - - N/A   Clear
9:55 AM 50.0 °F 46.4 °F 87% 30.11 in 10.0 mi North - - N/A   Clear
10:15 AM 51.8 °F 46.4 °F 82% 30.10 in 10.0 mi North - - N/A   Clear
10:35 AM 55.4 °F 46.4 °F 72% 30.10 in 10.0 mi North - - N/A   Clear
10:55 AM 57.2 °F 46.4 °F 67% 30.09 in 10.0 mi North - - N/A   Clear
11:15 AM 59.0 °F 46.4 °F 63% 30.09 in 10.0 mi North - - N/A   Clear
11:35 AM 59.0 °F 44.6 °F 59% 30.09 in 10.0 mi North - - N/A   Clear
11:55 AM 62.6 °F 44.6 °F 52% 30.09 in 10.0 mi North - - N/A   Clear
12:15 PM 62.6 °F 42.8 °F 48% 30.08 in 10.0 mi North - - N/A   Clear
12:35 PM 62.6 °F 42.8 °F 48% 30.08 in 10.0 mi North - - N/A   Clear
12:55 PM 64.4 °F 41.0 °F 42% 30.06 in 10.0 mi North - - N/A   Clear
1:15 PM 64.4 °F 41.0 °F 42% 30.05 in 10.0 mi North - - N/A   Clear
1:35 PM 66.2 °F 37.4 °F 35% 30.04 in 10.0 mi North - - N/A   Clear
1:55 PM 66.2 °F 37.4 °F 35% 30.03 in 10.0 mi North - - N/A   Clear
2:15 PM 66.2 °F 37.4 °F 35% 30.02 in 10.0 mi North - - N/A   Clear
2:35 PM 66.2 °F 35.6 °F 32% 30.01 in 10.0 mi North - - N/A   Clear
2:55 PM 68.0 °F 37.4 °F 33% 30.00 in 10.0 mi North - - N/A   Clear
3:15 PM 68.0 °F 37.4 °F 33% 30.00 in 10.0 mi North - - N/A   Clear
3:35 PM 68.0 °F 37.4 °F 33% 30.00 in 10.0 mi North - - N/A   Clear
3:55 PM 68.0 °F 37.4 °F 33% 30.00 in 10.0 mi North - - N/A   Clear
4:15 PM 68.0 °F 37.4 °F 33% 30.00 in 10.0 mi North - - N/A   Clear
4:35 PM 68.0 °F 39.2 °F 35% 29.99 in 10.0 mi North - - N/A   Clear
4:55 PM 66.2 °F 39.2 °F 37% 30.00 in 10.0 mi North - - N/A   Clear
5:15 PM 66.2 °F 39.2 °F 37% 30.00 in 10.0 mi North - - N/A   Clear
5:35 PM 66.2 °F 39.2 °F 37% 30.00 in 10.0 mi North - - N/A   Unknown
5:55 PM 64.4 °F 39.2 °F 40% 30.00 in 10.0 mi North - - N/A   Clear
6:15 PM 62.6 °F 37.4 °F 39% 30.01 in 10.0 mi North - - N/A   Unknown
6:35 PM 59.0 °F 39.2 °F 48% 30.02 in 10.0 mi North - - N/A   Clear
6:55 PM 59.0 °F 39.2 °F 48% 30.02 in 10.0 mi North - - N/A   Clear
7:15 PM 57.2 °F 39.2 °F 51% 30.03 in 10.0 mi North - - N/A   Clear
7:35 PM 55.4 °F 39.2 °F 54% 30.03 in 10.0 mi North - - N/A   Clear
7:55 PM 53.6 °F 41.0 °F 62% 30.03 in 10.0 mi North - - N/A   Clear
8:15 PM 53.6 °F 39.2 °F 58% 30.03 in 10.0 mi North - - N/A   Clear
8:35 PM 53.6 °F 39.2 °F 58% 30.03 in 10.0 mi North - - N/A   Clear
8:55 PM 51.8 °F 41.0 °F 67% 30.03 in 10.0 mi North - - N/A   Clear
9:15 PM 50.0 °F 41.0 °F 71% 30.03 in 10.0 mi North - - N/A   Clear
9:35 PM 51.8 °F 39.2 °F 62% 30.03 in 10.0 mi North - - N/A   Clear
9:55 PM 50.0 °F 39.2 °F 66% 30.03 in 10.0 mi North - - N/A   Clear
10:15 PM 50.0 °F 39.2 °F 66% 30.03 in 10.0 mi North - - N/A   Clear
10:35 PM 48.2 °F 39.2 °F 71% 30.03 in 10.0 mi North - - N/A   Clear
10:55 PM 48.2 °F 41.0 °F 76% 30.02 in 10.0 mi North - - N/A   Clear
11:15 PM 46.4 °F 41.0 °F 81% 30.02 in 10.0 mi North - - N/A   Clear
11:35 PM 46.4 °F 41.0 °F 81% 30.01 in 10.0 mi North - - N/A   Clear
11:55 PM 48.2 °F 41.0 °F 76% 30.01 in 10.0 mi North - - N/A   Clear